Погода в Астрахани

Хотите узнать прогноз погоды в Астрахани? Тогда Вам сюда: Погода в Астрахани

Поиск расширенной информации на нашем сайте:

Полезная информация:

Новости сайта



02.01.2020
Опубликован Долгосрочный прогноз погоды по городам России и ближнего зарубежья на январь 2020 года.
Карты: Прогноз на январь и февраль 2020 года, Сравнение прогнозируемой аномалии приземной температуры воздуха на январь 2020 года по разным моделям.




Погода в Астрахани - сегодня

Время (UTC), дата Ветер
(°,м/с) 
Видим.   Явления Облачность Т
(°С)
Тd
(°С)
f(%) Тe
(°С)
Pmin
(гПа)
dP
(гПа)
Po
(мм)
O2
(г/м3)
Тmin Tmax R s Состояние
почвы
12 18.10.20 120 (ЮВ) 10 км    ясно 
+20.1 +12 60 +24  1017.3  -1.1  765  285           
15 18.10.20 110 (В) 10 км    9/8 600 м кучево-дожд., средняя 
[Cb cap|Ac trans]
+19.8 +11.8 60 +24  1012.8  -1  761  284    +23.6       
18 18.10.20 100 (В) 4000 м  дымка  ясно 
+11.1 +9.1 87 +11  1017.3  -0.3  765  295           
21 18.10.20 080 (В) 4000 м  дымка  ясно 
+9 +7.5 90 +10  1016.1  -1.2  764  297           
00 19.10.20 300 (СЗ) 4000 м  дымка  ясно 
+8.6 +7.5 93 +10  1016.5  0.4  764  297           
03 19.10.20 020 (С) 4000 м  дымка  3/0 верхняя 
[Ci fib]
+6.6 +5.7 94 +8  1016.2  -0.3  764  300  +6.6         
06 19.10.20 340 (С) 10 км    3/0 верхняя 
[Ci fib]
+15.2 +6.7 57 +17  1016.6  0.3  764  291  +6.5         
09 19.10.20 330 (СЗ) 10 км    3/0 верхняя 
[Ci fib]
+21.1 +3.8 32 +21  1015.1  -1.6  763  285           
12 19.10.20 310 (СЗ) 10 км    6/0 верхняя 
[Ci fib]
+23.5 +2.4 25 +24  1013.9  -1.2  762  282           
15 19.10.20 тихо ()   10 км  дым  8/0 верхняя 
[Ci fib]
+14.1 +6.1 59 +14  1013.6  -0.2  762  291    +23.5       
18 19.10.20 020 (С) 10 км    8/0 верхняя 
[Ci fib]
+11.7 +6.2 69 +13  1013.3  -0.3  762  293           
21 19.10.20 270 (З) 10 км    9/0 средняя 
[Ac trans]
+11.3 +8.7 84 +12  1013.6  0.3  762  293           
00 20.10.20 280 (З) 4000 м  дымка  9/5 1000 м кучево-дожд., средняя 
[Cb cap|Ac trans]
+12.1 +10 87 +13  1014.8  1.2  763  293           
03 20.10.20 330 (СЗ) 10 км    9/9 600 м кучево-дожд. 
[Cb cap]
+11.3 +7.7 78 +11  1017.6  2.9  765  295  +9.9        сухая 
06 20.10.20 320 (СЗ) 5-10{11}  10 км  {ливн. осадки}  9/9 600 м кучево-дожд. 
[Cb cap]
+10.7 +5.8 72 +10  1021.8  4.2  768  297           
09 20.10.20 290 (З) 4{10}  10 км    1/1 600 м кучево-дожд. 
[Cb cap]
+14.6 +3.8 48 +14  1022.5  0.7  769  294           
12 20.10.20 270 (З) 10 км    3/3 600 м кучево-дожд. 
[Cb cap]
+15.2 +2.9 44 +15  1022.7  0.1  769  293           
15 20.10.20 220 (ЮЗ) 10 км    9/9 600 м кучево-дожд. 
[Cb cap]
+13.1 +3.9 54 +14  1022.9  0.3  769  295    +15.6  0.0     
18 20.10.20 230 (ЮЗ) 10 км    6/0 средняя 
[Ac trans]
+11.4 +6.1 70 +13  1023.2  0.3  769  297           
21 20.10.20 240 (ЮЗ) 10 км    8/8 600 м кучево-дожд. 
[Cb cap]
+10 +6.6 79 +10  1023.1  -0.1  769  298           
00 21.10.20 260 (З) 10 км    ясно 
+7.6 +4.2 79 +8  1023.9  0.8  770  301           
03 21.10.20 240 (ЮЗ) 10 км    ясно 
+5.4 +2.6 82 +4  1024.9  771  304  +5.4        сухая 
06 21.10.20 250 (З) 10 км    ясно 
+9.3 +0.2 53 +9  1026.5  1.6  772  301  +5.2         
09 21.10.20 250 (З) 6-11{11}  10 км  пыльный позёмок  8/8 1000 м 
[Sc]
+12.9 -1.8 36 +12  1026.6  0.1  772  297           
12 21.10.20 280 (З) 5{13}  10 км    1/0 верхняя 
[Ci fib]
+12.5 -2.9 34 +12  1026  -0.6  771  298           
Время (UTC), дата Ветер
(°,м/с) 
Видим.   Явления Облачность Т
(°С)
Тd
(°С)
f(%) Тe
(°С)
Pmin
(гПа)
dP
(гПа)
Po
(мм)
O2
(г/м3)
Тmin Tmax R s Состояние
почвы

Для получения пояснительной информации подведите курсор к названию столбца.

ПОГОДА в Астрахани - архив

Всё, что Вы хотите узнать о погоде в Астрахани - удобно и подробно!

Выберите нужную дату (начиная с 1 января 2019* года) и нажмите кнопку "Найти".
Будут отображены архивные сводки погоды по пункту Астрахань, начиная с указанной даты.


Отображать данные в формате CSV (для использования в таблицах Excel)


Внимание! Наш архив погоды предназначен исключительно для личного некоммерческого использования в познавательных целях. Если Вам необходимы официальные справки о состоянии погоды (для производственных, юридических, коммерческих и т.п. целей), обращайтесь в органы Росгидромета.

*Примечание: данная дата относится к архиву по метеостанциям СССР (Россия, СНГ, Балтия).
Архив по метеостанциям Зарубежной Европы и Азии (кроме Китая) хранится 10 дней, по другим регионам земного шара (Китай, Африка, Америка, Австралия, Океания) - 1 день.

Астрахань - район местоположения метеостанции


Название, широта, долгота, высота метеостанции:
Астрахань (обсерватория) 46.3°ш. 47.9°д. -23 м над ур. моря [Российская Федерация]

Дополнительная информация

В oтличие oт бoльшинства пoгoдных сайтoв мы публикуем пoдрoбную метеoинфoрмацию в детальнoм прoфессиoнальнoм фoрмате.

Характеристики температуры и влажнoсти вoздуха измеряются на высoте 2 м в тени вдали oт зданий и деревьев.
Скoрoсть ветра измеряется на высoте 10 м (на урoвне рoста челoвека скoрoсть ветра ниже в 1.5-2 раза). Если метеoстанция нахoдится в гoрoде или в лесу, тo скoрoсть ветра занижена на 2-4 м/с пo сравнению с oткрытым местoм. Скoрoсть ветра над акватoриями крупных рек и oзёр, а также на вершинах хoлмoв на 2-5 м/с выше, чем в oбычных услoвиях.
Атмoсфернoе давление в разных тoчках местнoсти мoжет значительнo oтличаться oт давления на метеoстанции, в зависимoсти oт услoвий рельефа (при пoдъёме на 10 м давление пoнижается примернo на 1 мм рт.ст.).